Terug naar catalogus

STARLINK-33555

ActiefCommunicatieVLEO
NORAD 62104·PAYLOAD·🇺🇸 United States

Gelanceerd Nov 25, 2024 vanaf Cape Canaveral Space Force Station

Loading…

Volgende Passages (komende 24 uur)

TLE

VersSource: CelesTrak SupGP

Epoch: Sep 14, 2026, 22:36 UTC

1 62104C 24220S   26257.94215278  .00006470  00000+0  23433-3 0  2574
2 62104  43.0029 216.8830 0001342 263.4873  83.6821 15.27577637    13

Volg STARLINK-33555 in realtime met AllMySat

Download on the App Store